Погода в Александровке

Россия / Тюменская область     56°36′28″N   69°43′49″E
темп.,
°C
ветер,
м/с
пор.,
м/с
влажн.,
%
обл.,
%
осадки,
мм/ч
давл.,
гПа
погр.,
м
18 мая, вт
вт1823:00+17ссв127010 0.3 101119
02:00+16з3873100 0.1 1011129
05:00+15зсз41177100 0.1 1011277
08:00+20зсз586153 0.0 1011439
11:00+21зсз47542 0.0 1011520
14:00+24зсз8104239 0.0 10102270
17:00+19с91163100 0.4 10121133
20:00+14ссв6107596 0.0 10151011
19 мая, ср
ср1923:00+13ссв5973100 0.1 1017739
02:00+11с6107334 0.0 1018578
05:00+8с511764 0.0 1019363
08:00+13с57541 0.0 1020831
11:00+15с783525 0.0 10211691
14:00+17с783334 0.0 10212188
17:00+17с693532 0.0 10202344
20:00+13с595027 0.0 1021284
20 мая, чт
чт2023:00+9ссв3659100 0.0 1023126
02:00+7ссв38600 0.0 1024172
05:00+5св34615 0.0 1026113
08:00+10св12388 0.0 1026618
11:00+14сз3435100 0.0 10251143
14:00+13ююз254881 0.2 1023661
17:00+21зсз7103987 0.2 10201957
20:00+18з4115164 0.0 1019285
21 мая, пт
пт2123:00+17зсз61553100 0.0 1018342
02:00+14зсз410627 0.0 1019164
05:00+13сз36725 0.0 1020119
08:00+20ссз34575 0.0 1021385
11:00+25сз34415 0.0 1021937
14:00+28зсз56325 0.0 10202397
17:00+28зсз56305 0.0 10202493
20:00+21зюз410525 0.0 1020172
22 мая, сб
сб2223:00+19з412528 0.0 1021193
02:00+17з411540 0.0 1021169
05:00+16зсз48620 0.0 1022122
08:00+23з58440 0.0 1022364
11:00+27з56310 0.0 10221533
14:00+29з56272 0.0 10212347
17:00+28з56305 0.0 10212316
20:00+22зюз47494 0.0 102195